Content
SEND FEEDBACK

Daily
Averages
Monthly
Summary
Canada

VANCOUVER, BRITISH COLUMBIA


Home > North America > Canada > British Columbia
Elevation: 7 feet     Latitude: 49 11N     Longitude: 123 10W

WEATHER
 
SELECT A DAY
Number of Records: 249,569;   Date Range: 5/15/97 - 8/19/14
 
SHARE

PRINT THIS DATA

[ ← Previous Day ]
WEATHER ALMANAC - MARCH 30, 2013
[ Next Day → ]
[ °C ]   °F
Weather ElementAverageHighLow
Temperature45.9 °F51.8 °F (2:55 pm)37.4 °F (5:35 am)
Dewpoint43.3 °F48.2 °F (1:35 pm)37.4 °F (5:35 am)
Humidity91 %100 % (12:35 am)76 % (5:55 pm)
Barometer30.21 in30.27 in (1:35 am)30.10 in (10:35 pm)
Wind Speed1.8 mph8.1 mph (11:35 am)
Weather ElementAverage
Visibility8.7 mi
Wind DirectionESE (105.5 °)

Weather ElementTotal
Precipitation---
Heating Degree Days20.4 (Base 65)
Averaged from 69 records on March 30, 2013
WEATHER CONDITIONS BREAKOUT
WIND DIRECTION BREAKOUT
WEATHER BY HOUR - MARCH 30, 2013
[ °C ]   °F
Local TimeTemperatureDewpointHumidityBarometerVisibilityWind DirectionWind SpeedGust SpeedPrecipitationEventsConditions
12:35 AM41.0 °F41.0 °F100 %30.25 in8.0 miCalmClear
12:55 AM41.0 °F41.0 °F100 %30.26 in10.0 miCalmClear
1:15 AM41.0 °F41.0 °F100 %30.26 in8.0 miCalmClear
1:35 AM41.0 °F41.0 °F100 %30.27 in7.0 miCalmClear
2:15 AM41.0 °F41.0 °F100 %30.27 in8.0 miCalmClear
2:35 AM39.2 °F39.2 °F100 %30.27 in8.0 miCalmClear
2:55 AM39.2 °F39.2 °F100 %30.27 in8.0 miCalmClear
3:15 AM41.0 °F41.0 °F100 %30.27 in8.0 miCalmClear
3:35 AM41.0 °F41.0 °F100 %30.26 in8.0 miCalmClear
3:55 AM39.2 °F39.2 °F100 %30.26 in8.0 miCalmClear
4:15 AM39.2 °F39.2 °F100 %30.27 in8.0 miCalmClear
4:35 AM39.2 °F39.2 °F100 %30.27 in8.0 miCalmClear
4:55 AM39.2 °F39.2 °F100 %30.27 in8.0 miCalmClear
5:15 AM39.2 °F39.2 °F100 %30.27 in8.0 miCalmClear
5:35 AM37.4 °F37.4 °F100 %30.26 in6.0 miCalmClear
5:55 AM39.2 °F39.2 °F100 %30.26 in7.0 miCalmClear
6:15 AM39.2 °F39.2 °F100 %30.26 in5.0 miCalmPartly Cloudy
6:35 AM39.2 °F39.2 °F100 %30.27 in5.0 miCalmMostly Cloudy
6:55 AM41.0 °F41.0 °F100 %30.27 in7.0 miCalmOvercast
7:15 AM42.8 °F42.8 °F100 %30.27 in6.0 miCalmOvercast
7:35 AM42.8 °F42.8 °F100 %30.27 in1.0 miCalmOvercast
7:55 AM41.0 °F41.0 °F100 %30.27 in0.2 miCalmFogFog
8:15 AM44.6 °F44.6 °F100 %30.27 in3.0 miCalmClear
8:35 AM44.6 °F44.6 °F100 %30.27 in7.0 miCalmClear
8:55 AM48.2 °F44.6 °F87 %30.27 in9.0 miCalmClear
9:15 AM48.2 °F44.6 °F87 %30.27 in8.0 miCalmClear
9:35 AM48.2 °F44.6 °F87 %30.27 in9.0 miCalmClear
9:55 AM48.2 °F44.6 °F87 %30.27 in8.0 miNorth (360°)4.6 mphClear
10:15 AM48.2 °F46.4 °F93 %30.27 in10.0 miNorth (350°)3.5 mphClear
10:35 AM48.2 °F46.4 °F93 %30.27 in10.0 miNorth (360°)5.8 mphClear
11:15 AM50.0 °F46.4 °F87 %30.27 in10.0 miNorth (350°)5.8 mphClear
11:35 AM50.0 °F46.4 °F87 %30.27 in10.0 miNNW (330°)8.1 mphClear
11:55 AM50.0 °F46.4 °F87 %30.27 in10.0 miNNW (340°)4.6 mphClear
12:15 PM50.0 °F46.4 °F87 %30.26 in10.0 miNNW (330°)8.1 mphClear
12:35 PM50.0 °F46.4 °F87 %30.26 in10.0 miNNW (340°)6.9 mphClear
12:55 PM50.0 °F46.4 °F87 %30.25 in10.0 miNNW (340°)6.9 mphClear
1:15 PM50.0 °F46.4 °F87 %30.25 in10.0 miNorth (360°)6.9 mphClear
1:35 PM50.0 °F48.2 °F94 %30.25 in10.0 miNorth (360°)6.9 mphClear
1:55 PM50.0 °F46.4 °F87 %30.24 in10.0 miNorth (350°)5.8 mphClear
2:15 PM50.0 °F46.4 °F87 %30.23 in10.0 miNNW (340°)6.9 mphClear
2:35 PM50.0 °F46.4 °F87 %30.23 in10.0 miNNW (340°)5.8 mphClear
2:55 PM51.8 °F46.4 °F82 %30.22 in10.0 miNNW (340°)6.9 mphClear
3:15 PM51.8 °F46.4 °F82 %30.21 in10.0 miNorth (350°)5.8 mphClear
3:35 PM51.8 °F46.4 °F82 %30.20 in10.0 miNorth (350°)4.6 mphClear
3:55 PM51.8 °F46.4 °F82 %30.19 in10.0 miNorth (350°)5.8 mphClear
4:15 PM51.8 °F46.4 °F82 %30.19 in10.0 miNorth (350°)4.6 mphClear
4:35 PM51.8 °F46.4 °F82 %30.18 in10.0 miCalmClear
4:55 PM51.8 °F46.4 °F82 %30.17 in10.0 miCalmClear
5:15 PM51.8 °F46.4 °F82 %30.16 in10.0 miNorth (350°)4.6 mphClear
5:35 PM51.8 °F46.4 °F82 %30.16 in10.0 miCalmClear
5:55 PM51.8 °F44.6 °F76 %30.15 in10.0 miNNW (340°)4.6 mphClear
6:15 PM51.8 °F44.6 °F76 %30.15 in10.0 miCalmClear
6:35 PM51.8 °F44.6 °F76 %30.14 in10.0 miCalmClear
6:55 PM51.8 °F44.6 °F76 %30.14 in10.0 miCalmClear
7:15 PM51.8 °F44.6 °F76 %30.13 in10.0 miCalmClear
7:35 PM50.0 °F44.6 °F82 %30.13 in10.0 miCalmClear
7:55 PM48.2 °F44.6 °F87 %30.12 in10.0 miCalmClear
8:15 PM46.4 °F42.8 °F87 %30.12 in10.0 miCalmClear
8:35 PM46.4 °F42.8 °F87 %30.12 in10.0 miCalmClear
8:55 PM44.6 °F42.8 °F93 %30.12 in10.0 miCalmClear
9:15 PM44.6 °F42.8 °F93 %30.11 in10.0 miCalmClear
9:35 PM44.6 °F42.8 °F93 %30.11 in10.0 miCalmClear
9:55 PM44.6 °F42.8 °F93 %30.11 in10.0 miCalmClear
10:15 PM44.6 °F42.8 °F93 %30.11 in10.0 miCalmClear
10:35 PM44.6 °F41.0 °F87 %30.10 in9.0 miCalmClear
10:55 PM42.8 °F41.0 °F93 %30.10 in9.0 miCalmClear
11:15 PM44.6 °F41.0 °F87 %30.10 in10.0 miCalmClear
11:35 PM42.8 °F41.0 °F93 %30.10 in10.0 miCalmClear
11:55 PM42.8 °F41.0 °F93 %30.10 in10.0 miCalmClear
Hourly data recorded from CZBB, located miles away from Vancouver, British Columbia







STORIES FROM OUR PARTNERS